Location: Passau
(48.5830°N, 13.4830°E)
Time: 17:25:11
(UTC+01:00)

ITAMSAT 1 - Visible Passes

Search period start: 03 December 2021 00:00
Search period end: 13 December 2021 00:00
Orbit: 784 x 796 km, 98.9° (Epoch: 02 December)

Date Brightness Start Highest point End Pass type
(mag) Time Alt. Az. Time Alt. Az. Time Alt. Az.
03 Dec 10.5 06:22:40 10° NE 06:26:13 18° E 06:29:44 10° SE visible
03 Dec 8.0 17:43:43 10° SE 17:48:35 42° ENE 17:53:30 10° N visible
03 Dec 9.3 19:23:31 10° SSW 19:28:08 31° W 19:32:48 10° NNW visible
04 Dec 8.6 17:15:07 10° ESE 17:19:20 26° ENE 17:23:34 10° N visible
04 Dec 8.3 18:53:21 10° S 18:58:28 55° W 19:03:37 10° NNW visible
05 Dec 9.4 07:02:11 10° NNE 07:07:04 38° E 07:11:53 10° SSE visible
05 Dec 9.1 16:47:07 10° E 16:50:13 16° NE 16:53:18 10° NNE visible
05 Dec 7.6 18:23:41 10° SSE 18:28:54 86° ENE 18:34:11 10° NNW visible
05 Dec 10.4 20:06:08 10° WSW 20:09:03 15° W 20:11:58 10° NW visible
06 Dec 10.3 06:33:16 10° NE 06:37:17 22° E 06:41:17 10° SE visible
06 Dec 7.8 17:54:27 10° SE 17:59:29 50° ENE 18:04:33 10° N visible
06 Dec 9.7 19:34:51 10° SSW 19:39:11 26° W 19:43:33 10° NW visible
07 Dec 10.8 06:05:17 10° ENE 06:07:23 12° E 06:09:28 10° ESE visible
07 Dec 8.4 17:25:41 10° ESE 17:30:11 30° ENE 17:34:43 10° N visible
07 Dec 8.7 19:04:27 10° S 19:09:27 45° W 19:14:30 10° NNW visible
08 Dec 8.9 16:57:27 10° E 17:01:01 19° NE 17:04:35 10° NNE visible
08 Dec 7.7 18:34:38 10° SSE 18:39:52 79° WSW 18:45:08 10° NNW visible
08 Dec 10.6 20:18:14 10° WSW 20:20:09 12° W 20:22:06 10° WNW visible
09 Dec 10.0 06:43:57 10° NE 06:48:21 27° E 06:52:42 10° SSE visible
09 Dec 7.6 18:05:15 10° SSE 18:10:24 61° ENE 18:15:34 10° N visible
09 Dec 10.0 19:46:18 10° SW 19:50:14 21° W 19:54:14 10° NW visible
10 Dec 10.6 06:15:29 10° NE 06:18:29 15° E 06:21:28 10° ESE visible
10 Dec 8.2 17:36:20 10° SE 17:41:03 36° ENE 17:45:48 10° N visible
10 Dec 9.1 19:15:39 10° SSW 19:20:28 37° W 19:25:20 10° NNW visible
11 Dec 8.8 17:07:53 10° ESE 17:11:50 22° ENE 17:15:48 10° N visible
11 Dec 8.0 18:45:38 10° S 18:50:50 65° WSW 18:56:04 10° NNW visible
12 Dec 9.7 06:54:42 10° NNE 06:59:23 32° E 07:04:02 10° SSE visible
12 Dec 7.5 18:16:07 10° SSE 18:21:19 74° ENE 18:26:34 10° NNW visible
12 Dec 10.2 19:57:52 10° SW 20:01:19 18° W 20:04:48 10° NW visible
